Retour au catalogue

STARLINK-31820

ActifCommunicationsVLEO
NORAD 59725·PAYLOAD·🇺🇸 United States

Lancé May 10, 2024 depuis Vandenberg Space Force Base

Loading…

Prochains Passages (prochaines 24 heures)

TLE

FraisSource: CelesTrak SupGP

Époque: Sep 15, 2026, 02:57 UTC

1 59725C 24088T   26258.12340278  .00070541  00000+0  22687-2 0  2581
2 59725  53.1581 338.6946 0001132  96.9497 269.7328 15.31662137    16

Suivez STARLINK-31820 en temps réel avec AllMySat

Download on the App Store